SCP
0 0 0 0 0 0 0 0 0 0 0 0 0 0 0 0 0 0 0 0 0 0 0 0 0 0 0 0 0 0 0 0 0 0 0 0 0 0 0 0 0 0 0 0
0 0 0 0 0 0 0 0 0 0 0 0 0 0 0 0 0 0 0 0 0 0 0 0 0 0 0 0 0 0 0 0 0 0 0 0 0 0 0 0 0 0 0 0
0 0 0 0 0 0 0 0 0 0 0 0 0 0 0 0 0 0 0 0 0 0 0 0 0 0 0 0 0 0 0 0 0 0 0 0 0 0 0 0 0 0 0 0
0 0 0 0 0 0 0 0 0 0 0 0 0 0 0 0 0 0 0 0 0 0 0 0 0 0 0 0 0 0 0 0 0 0 0 0 0 0 0 0 0 0 0 0
0 0 0 0 0 0 0 0 0 0 0 0 0 0 0 0 0 0 0 0 0 0 0 0 0 0 0 0 0 0 0 0 0 0 0 0 0 0 0 0 0 0 0 0
0 0 0 0 0 0 0 0 0 0 0 0 0 0 0 0 0 0 0 0 0 0 0 0 0 0 0 0 0 0 0 0 0 0 0 0 0 0 0 0 0 0 0 0
0 0 0 0 0 0 0 0 0 0 0 0 0 0 0 0 0 0 0 0 0 0 0 0 0 0 0 0 0 0 0 0 0 0 0 0 0 0 0 0 0 0 0 0
0 0 0 0 0 0 0 0 0 0 0 0 0 0 0 0 0 0 0 0 0 0 0 0 0 0 0 0 0 0 0 0 0 0 0 0 0 0 0 0 0 0 0 0
0 0 0 0 0 0 0 0 0 0 0 0 0 0 0 0 0 0 0 0 0 0 0 0 0 0 0 0 0 0 0 0 0 0 0 0 0 0 0 0 0 0 0 0
0 0 0 0 0 0 0 0 0 0 0 0 0 0 0 0 0 0 0 0 0 0 0 0 0 0 0 0 0 0 0 0 0 0 0 0 0 0 0 0 0 0 0 0
0 0 0 0 0 0 0 0 0 0 0 0 0 0 0 0 0 0 0 0 0 0 0 0 0 0 0 0 0 0 0 0 0 0 0 0 0 0 0 0 0 0 0 0
0 0 0 0 0 0 0 0 0 0 0 0 0 0 0 0 0 0 0 0 0 0 0 0 0 0 0 0 0 0 0 0 0 0 0 0 0 0 0 0 0 0 0 0
0 0 0 0 0 0 0 0 0 0 0 0 0 0 0 0 0 0 0 0 0 0 0 0 0 0 0 0 0 0 0 0 0 0 0 0 0 0 0 0 0 0 0 0
0 0 0 0 0 0 0 0 0 0 0 0 0 0 0 0 0 0 0 0 0 0 0 0 0 0 0 0 0 0 0 0 0 0 0 0 0 0 0 0 0 0 0 0
0 0 0 0 0 0 0 0 0 0 0 0 0 0 0 0 0 0 0 0 0 0 0 0 0 0 0 0 0 0 0 0 0 0 0 0 0 0 0 0 0 0 0 0
0 0 0 0 0 0 0 0 0 0 0 0 0 0 0 0 0 0 0 0 0 0 0 0 0 0 0 0 0 0 0 0 0 0 0 0 0 0 0 0 0 0 0 0
0 0 0 0 0 0 0 0 0 0 0 0 0 0 0 0 0 0 0 0 0 0 0 0 0 0 0 0 0 0 0 0 0 0 0 0 0 0 0 0 0 0 0 0
0 0 0 0 0 0 0 0 0 0 0 0 0 0 0 0 0 0 0 0 0 0 0 0 0 0 0 0 0 0 0 0 0 0 0 0 0 0 0 0 0 0 0 0
0 0 0 0 0 0 0 0 0 0 0 0 0 0 0 0 0 0 0 0 0 0 0 0 0 0 0 0 0 0 0 0 0 0 0 0 0 0 0 0 0 0 0 0
0 0 0 0 0 0 0 0 0 0 0 0 0 0 0 0 0 0 0 0 0 0 0 0 0 0 0 0 0 0 0 0 0 0 0 0 0 0 0 0 0 0 0 0
0 0 0 0 0 0 0 0 0 0 0 0 0 0 0 0 0 0 0 0 0 0 0 0 0 0 0 0 0 0 0 0 0 0 0 0 0 0 0 0 0 0 0 0
0 0 0 0 0 0 0 0 0 0 0 0 0 0 0 0 0 0 0 0 0 0 0 0 0 0 0 0 0 0 0 0 0 0 0 0 0 0 0 0 0 0 0 0
0 0 0 0 0 0 0 0 0 0 0 0 0 0 0 0 0 0 0 0 0 0 0 0 0 0 0 0 0 0 0 0 0 0 0 0 0 0 0 0 0 0 0 0
0 0 0 0 0 0 0 0 0 0 0 0 0 0 0 0 0 0 0 0 0 0 0 0 0 0 0 0 0 0 0 0 0 0 0 0 0 0 0 0 0 0 0 0
0 0 0 0 0 0 0 0 0 0 0 0 0 0 0 0 0 0 0 0 0 0 0 0 0 0 0 0 0 0 0 0 0 0 0 0 0 0 0 0 0 0 0 0
0 0 0 0 0 0 0 0 0 0 0 0 0 0 0 0 0 0 0 0 0 0 0 0 0 0 0 0 0 0 0 0 0 0 0 0 0 0 0 0 0 0 0 0
Wind_Speed_500mb
29 12 36 28 6 9 5 12 11 4 10 11 17 12 20 26 23 26 30 33 31 39 37 31 38 51 43 39 42 43 45 47 46 47 49 48 50 49 49 48 45 44 44 44
12 28 14 17 15 18 8 14 10 4 5 4 8 19 18 19 27 46 41 37 34 34 35 37 42 43 51 49 46 46 47 48 49 48 44 45 49 50 48 48 48 48 45 40
15 12 21 20 14 25 11 10 11 10 5 2 3 13 13 18 45 38 44 44 38 36 40 40 48 48 45 52 56 56 55 53 55 51 47 42 39 45 47 50 49 51 48 45
12 8 33 11 19 14 12 8 15 21 10 7 6 9 12 13 19 22 59 55 46 43 44 54 53 50 45 45 47 54 61 62 60 53 54 53 52 46 45 46 46 46 47 47
9 14 15 10 24 13 7 8 13 9 10 9 3 3 15 3 9 17 40 47 43 37 40 52 49 44 39 39 42 46 49 57 66 64 56 49 50 42 36 37 39 38 40 40
7 3 3 13 3 11 14 11 17 11 8 1 10 12 11 6 11 6 13 36 40 40 37 35 35 34 35 35 35 36 37 39 49 69 66 56 42 37 33 34 34 32 29 30
5 2 2 7 15 11 10 11 5 4 2 11 4 8 16 11 8 12 18 34 34 29 29 29 29 26 24 21 23 23 24 28 35 45 59 60 41 35 32 23 27 29 30 27
12 6 11 6 12 17 11 12 11 13 8 8 3 12 12 7 5 18 37 37 31 27 25 24 21 21 21 20 20 19 19 19 23 31 39 50 50 40 25 29 29 30 28 26
10 3 5 5 2 14 10 8 11 14 5 7 8 11 20 7 5 20 35 37 33 32 30 26 25 22 21 20 19 18 17 17 20 25 31 37 43 43 29 24 27 27 29 27
10 10 4 4 1 3 9 12 6 4 9 5 8 8 10 11 18 15 19 31 35 35 32 30 28 26 22 21 19 16 15 14 15 18 21 27 31 38 32 24 21 22 23 24
7 8 5 2 10 15 7 6 4 9 10 10 5 12 13 9 13 24 39 44 44 40 35 34 30 27 25 23 19 16 14 12 13 13 16 20 24 26 24 20 19 18 17 16
4 11 8 9 2 6 5 11 12 10 9 3 7 10 4 6 13 31 41 45 43 36 36 34 31 29 27 23 22 20 18 16 14 13 15 17 20 23 22 20 19 17 15 13
14 1 8 7 5 4 10 7 6 10 6 10 11 11 3 9 5 20 38 42 44 39 37 34 33 30 28 27 26 24 22 21 21 22 23 25 27 26 26 24 21 18 15 11
18 4 14 17 11 14 11 13 13 11 6 8 15 10 10 12 12 18 33 43 43 41 39 37 35 34 32 30 28 27 28 28 29 30 29 28 28 27 25 23 20 15 12 8
13 16 7 9 6 11 11 20 27 22 43 18 43 21 14 16 19 35 42 41 41 42 43 43 43 41 38 36 34 35 34 34 34 33 31 30 28 25 23 20 17 13 9 4
2 2 6 8 9 3 4 17 30 43 32 28 2 19 14 28 22 33 48 49 49 51 51 49 46 44 44 42 41 40 38 39 36 34 33 31 27 24 20 17 13 9 4 2
14 11 6 8 3 7 12 25 22 19 14 35 25 33 14 8 15 36 48 52 54 53 55 59 57 53 50 47 44 45 44 40 38 36 34 30 27 23 19 14 9 4 5 10
13 13 6 6 4 6 14 2 25 28 15 28 19 7 13 28 44 43 45 51 55 55 56 61 60 57 54 52 50 47 45 44 41 38 34 30 24 19 12 7 6 8 13 18
5 10 7 11 7 10 12 11 14 17 22 18 36 23 21 23 20 30 40 56 57 57 58 61 61 59 57 53 51 51 49 46 42 36 30 25 18 12 8 8 10 14 19 24
9 8 8 6 12 19 8 7 6 11 20 11 32 23 18 26 8 12 26 34 44 49 47 53 57 58 55 54 53 52 50 45 39 33 26 19 11 8 8 11 16 22 26 29
8 4 15 6 8 14 13 9 14 14 11 5 8 12 18 11 17 14 20 28 35 41 47 50 54 58 56 56 55 53 49 43 36 27 18 13 9 10 12 18 21 26 30 34
11 14 10 6 6 19 17 5 18 8 11 16 15 10 13 10 14 13 13 17 26 36 44 50 56 57 57 56 54 52 47 38 27 19 15 13 11 13 18 21 23 28 32 36
6 10 12 17 11 6 27 3 13 15 20 13 10 7 7 12 15 15 17 22 29 37 44 49 51 56 58 57 51 46 35 27 21 19 15 12 22 25 19 20 23 27 30 32
4 6 4 6 4 8 29 14 20 15 11 6 5 6 10 15 19 22 25 29 35 40 44 48 53 58 61 59 51 41 33 27 21 16 26 32 22 18 19 21 22 23 26 29
7 18 12 5 4 0 16 32 18 16 15 16 15 15 17 21 23 27 31 35 39 43 47 49 53 57 58 52 42 35 30 26 33 37 30 23 19 18 18 20 23 23 27 30
12 12 9 9 15 7 11 24 22 19 16 15 17 19 21 24 25 28 32 36 41 47 54 60 61 60 52 44 34 36 41 40 36 30 25 23 21 19 22 22 22 25 26 29
Wind_Direction_500mb
188 183 207 215 161 267 183 174 176 179 200 143 201 199 226 221 210 208 216 218 218 224 222 227 216 209 208 215 220 225 231 234 235 237 242 229 230 231 232 235 234 237 236 240
162 212 186 186 206 228 226 188 190 346 23 144 183 246 239 220 215 216 216 220 220 219 210 220 212 207 209 213 213 221 232 241 245 247 248 251 234 236 238 239 237 237 236 237
161 196 203 188 182 225 203 191 196 165 166 321 35 299 240 237 231 225 228 227 222 219 212 207 201 205 211 214 216 220 223 233 244 249 252 251 250 233 236 238 238 240 242 243
171 192 190 181 207 160 187 211 157 143 128 196 141 268 277 238 222 209 226 222 218 224 217 200 200 208 214 222 224 225 223 225 233 238 244 250 254 256 249 242 244 246 249 249
195 162 152 163 201 152 190 140 138 130 96 89 218 68 268 9 207 214 221 218 210 195 187 189 200 213 225 233 238 235 232 225 224 234 237 240 249 258 260 246 245 246 247 250
138 197 142 166 76 137 135 85 42 53 79 264 225 156 282 235 226 201 215 206 197 193 195 202 216 225 237 239 235 233 231 228 220 224 234 238 239 236 236 236 244 246 250 252
105 33 235 172 86 7 141 91 50 31 7 222 342 165 247 253 236 184 183 166 168 185 201 212 222 222 217 216 217 213 212 211 211 212 221 232 233 226 241 240 239 240 244 251
153 199 187 188 157 170 172 165 151 172 190 230 339 219 246 246 221 212 169 164 167 183 190 192 196 194 190 190 193 190 188 184 197 203 209 218 225 215 223 220 226 238 237 244
141 158 340 46 105 152 197 189 152 106 26 74 218 287 308 177 114 109 147 161 167 174 181 188 190 191 184 187 187 182 181 182 187 196 208 213 218 217 208 216 219 226 228 230
178 108 341 309 224 47 158 160 87 21 128 239 278 272 237 216 210 187 176 177 178 182 186 192 189 188 183 193 191 194 189 180 182 193 203 209 209 199 201 204 209 216 221 229
124 97 280 200 210 173 148 174 154 122 146 163 181 255 222 258 190 192 202 194 186 187 187 188 189 189 188 192 191 194 186 180 180 172 173 175 184 186 179 185 190 197 205 213
143 116 142 201 268 297 315 179 154 159 203 173 145 271 249 267 295 201 195 192 189 195 192 191 192 193 191 189 188 188 184 179 170 163 159 155 158 165 167 170 170 166 169 170
181 141 94 14 353 289 222 214 146 117 81 198 140 254 322 296 153 186 178 185 188 194 193 192 194 193 191 191 188 182 175 174 169 162 157 153 153 155 153 153 155 159 165 167
135 121 164 183 189 140 189 200 192 143 128 168 222 207 208 223 184 164 172 179 187 194 197 198 195 195 195 191 186 178 176 171 169 163 159 160 158 159 156 155 155 156 160 171
143 191 139 21 106 136 170 189 185 197 221 184 240 206 212 202 199 188 180 184 190 198 200 201 197 195 195 190 184 182 181 176 175 168 166 167 164 163 160 157 157 158 153 147
83 218 102 26 351 83 146 201 196 211 218 244 166 273 200 210 197 186 194 195 203 208 207 205 204 202 200 194 190 188 186 181 174 172 172 172 169 166 163 161 158 156 163 311
134 130 105 225 318 80 307 215 193 216 206 218 220 239 168 182 191 209 210 212 218 220 219 212 211 209 206 200 200 195 188 183 181 180 177 176 174 172 171 173 180 215 285 307
131 108 91 163 52 164 254 351 204 204 194 222 254 167 195 218 233 238 236 230 228 231 227 220 216 211 206 201 198 193 190 188 185 182 180 178 176 178 183 199 248 291 309 317
90 127 113 148 195 289 269 195 152 168 243 219 229 234 197 213 233 239 237 237 242 241 236 227 219 213 205 203 198 195 189 187 185 183 178 177 178 188 217 265 295 305 313 316
60 54 120 150 159 216 222 231 189 114 262 242 225 232 199 163 200 240 239 240 239 242 241 231 220 213 209 201 198 195 191 187 183 179 175 177 200 236 271 293 311 314 312 312
124 75 203 172 235 283 244 219 146 145 253 152 139 150 170 180 218 225 223 225 227 231 227 219 209 207 203 198 194 191 188 182 178 180 189 196 230 267 293 294 298 305 310 312
152 150 177 177 195 257 174 122 165 180 138 139 128 123 156 172 175 188 202 211 210 210 203 202 198 195 193 191 188 186 182 180 184 193 208 229 255 275 281 288 298 304 307 310
197 177 171 185 211 229 171 133 151 151 151 148 130 123 161 186 199 204 207 207 204 199 194 192 195 190 184 182 178 179 184 186 196 208 221 241 262 259 271 288 298 306 312 317
260 170 165 83 194 206 183 152 176 167 161 188 237 243 227 229 222 218 213 207 204 200 197 194 192 188 183 178 179 183 193 198 199 226 241 240 245 263 280 291 303 311 315 320
188 141 161 276 279 346 223 218 220 231 234 245 252 246 238 235 235 231 223 215 208 203 198 195 191 186 180 180 186 189 197 214 227 225 225 235 245 257 277 294 303 311 315 318
187 166 167 213 198 160 179 194 206 214 232 248 252 252 246 243 241 235 228 222 212 201 194 189 187 184 185 189 206 215 216 217 218 224 230 236 244 261 279 286 296 304 309 315
Wind_Speed_850mb
29 12 36 28 6 9 5 12 11 4 10 11 17 12 20 26 23 26 30 33 31 39 37 31 38 51 43 39 42 43 45 47 46 47 49 48 50 49 49 48 45 44 44 44
12 28 14 17 15 18 8 14 10 4 5 4 8 19 18 19 27 46 41 37 34 34 35 37 42 43 51 49 46 46 47 48 49 48 44 45 49 50 48 48 48 48 45 40
15 12 21 20 14 25 11 10 11 10 5 2 3 13 13 18 45 38 44 44 38 36 40 40 48 48 45 52 56 56 55 53 55 51 47 42 39 45 47 50 49 51 48 45
12 8 33 11 19 14 12 8 15 21 10 7 6 9 12 13 19 22 59 55 46 43 44 54 53 50 45 45 47 54 61 62 60 53 54 53 52 46 45 46 46 46 47 47
9 14 15 10 24 13 7 8 13 9 10 9 3 3 15 3 9 17 40 47 43 37 40 52 49 44 39 39 42 46 49 57 66 64 56 49 50 42 36 37 39 38 40 40
7 3 3 13 3 11 14 11 17 11 8 1 10 12 11 6 11 6 13 36 40 40 37 35 35 34 35 35 35 36 37 39 49 69 66 56 42 37 33 34 34 32 29 30
5 2 2 7 15 11 10 11 5 4 2 11 4 8 16 11 8 12 18 34 34 29 29 29 29 26 24 21 23 23 24 28 35 45 59 60 41 35 32 23 27 29 30 27
12 6 11 6 12 17 11 12 11 13 8 8 3 12 12 7 5 18 37 37 31 27 25 24 21 21 21 20 20 19 19 19 23 31 39 50 50 40 25 29 29 30 28 26
10 3 5 5 2 14 10 8 11 14 5 7 8 11 20 7 5 20 35 37 33 32 30 26 25 22 21 20 19 18 17 17 20 25 31 37 43 43 29 24 27 27 29 27
10 10 4 4 1 3 9 12 6 4 9 5 8 8 10 11 18 15 19 31 35 35 32 30 28 26 22 21 19 16 15 14 15 18 21 27 31 38 32 24 21 22 23 24
7 8 5 2 10 15 7 6 4 9 10 10 5 12 13 9 13 24 39 44 44 40 35 34 30 27 25 23 19 16 14 12 13 13 16 20 24 26 24 20 19 18 17 16
4 11 8 9 2 6 5 11 12 10 9 3 7 10 4 6 13 31 41 45 43 36 36 34 31 29 27 23 22 20 18 16 14 13 15 17 20 23 22 20 19 17 15 13
14 1 8 7 5 4 10 7 6 10 6 10 11 11 3 9 5 20 38 42 44 39 37 34 33 30 28 27 26 24 22 21 21 22 23 25 27 26 26 24 21 18 15 11
18 4 14 17 11 14 11 13 13 11 6 8 15 10 10 12 12 18 33 43 43 41 39 37 35 34 32 30 28 27 28 28 29 30 29 28 28 27 25 23 20 15 12 8
13 16 7 9 6 11 11 20 27 22 43 18 43 21 14 16 19 35 42 41 41 42 43 43 43 41 38 36 34 35 34 34 34 33 31 30 28 25 23 20 17 13 9 4
2 2 6 8 9 3 4 17 30 43 32 28 2 19 14 28 22 33 48 49 49 51 51 49 46 44 44 42 41 40 38 39 36 34 33 31 27 24 20 17 13 9 4 2
14 11 6 8 3 7 12 25 22 19 14 35 25 33 14 8 15 36 48 52 54 53 55 59 57 53 50 47 44 45 44 40 38 36 34 30 27 23 19 14 9 4 5 10
13 13 6 6 4 6 14 2 25 28 15 28 19 7 13 28 44 43 45 51 55 55 56 61 60 57 54 52 50 47 45 44 41 38 34 30 24 19 12 7 6 8 13 18
5 10 7 11 7 10 12 11 14 17 22 18 36 23 21 23 20 30 40 56 57 57 58 61 61 59 57 53 51 51 49 46 42 36 30 25 18 12 8 8 10 14 19 24
9 8 8 6 12 19 8 7 6 11 20 11 32 23 18 26 8 12 26 34 44 49 47 53 57 58 55 54 53 52 50 45 39 33 26 19 11 8 8 11 16 22 26 29
8 4 15 6 8 14 13 9 14 14 11 5 8 12 18 11 17 14 20 28 35 41 47 50 54 58 56 56 55 53 49 43 36 27 18 13 9 10 12 18 21 26 30 34
11 14 10 6 6 19 17 5 18 8 11 16 15 10 13 10 14 13 13 17 26 36 44 50 56 57 57 56 54 52 47 38 27 19 15 13 11 13 18 21 23 28 32 36
6 10 12 17 11 6 27 3 13 15 20 13 10 7 7 12 15 15 17 22 29 37 44 49 51 56 58 57 51 46 35 27 21 19 15 12 22 25 19 20 23 27 30 32
4 6 4 6 4 8 29 14 20 15 11 6 5 6 10 15 19 22 25 29 35 40 44 48 53 58 61 59 51 41 33 27 21 16 26 32 22 18 19 21 22 23 26 29
7 18 12 5 4 0 16 32 18 16 15 16 15 15 17 21 23 27 31 35 39 43 47 49 53 57 58 52 42 35 30 26 33 37 30 23 19 18 18 20 23 23 27 30
12 12 9 9 15 7 11 24 22 19 16 15 17 19 21 24 25 28 32 36 41 47 54 60 61 60 52 44 34 36 41 40 36 30 25 23 21 19 22 22 22 25 26 29
Wind_Direction_850mb
188 183 207 215 161 267 183 174 176 179 200 143 201 199 226 221 210 208 216 218 218 224 222 227 216 209 208 215 220 225 231 234 235 237 242 229 230 231 232 235 234 237 236 240
162 212 186 186 206 228 226 188 190 346 23 144 183 246 239 220 215 216 216 220 220 219 210 220 212 207 209 213 213 221 232 241 245 247 248 251 234 236 238 239 237 237 236 237
161 196 203 188 182 225 203 191 196 165 166 321 35 299 240 237 231 225 228 227 222 219 212 207 201 205 211 214 216 220 223 233 244 249 252 251 250 233 236 238 238 240 242 243
171 192 190 181 207 160 187 211 157 143 128 196 141 268 277 238 222 209 226 222 218 224 217 200 200 208 214 222 224 225 223 225 233 238 244 250 254 256 249 242 244 246 249 249
195 162 152 163 201 152 190 140 138 130 96 89 218 68 268 9 207 214 221 218 210 195 187 189 200 213 225 233 238 235 232 225 224 234 237 240 249 258 260 246 245 246 247 250
138 197 142 166 76 137 135 85 42 53 79 264 225 156 282 235 226 201 215 206 197 193 195 202 216 225 237 239 235 233 231 228 220 224 234 238 239 236 236 236 244 246 250 252
105 33 235 172 86 7 141 91 50 31 7 222 342 165 247 253 236 184 183 166 168 185 201 212 222 222 217 216 217 213 212 211 211 212 221 232 233 226 241 240 239 240 244 251
153 199 187 188 157 170 172 165 151 172 190 230 339 219 246 246 221 212 169 164 167 183 190 192 196 194 190 190 193 190 188 184 197 203 209 218 225 215 223 220 226 238 237 244
141 158 340 46 105 152 197 189 152 106 26 74 218 287 308 177 114 109 147 161 167 174 181 188 190 191 184 187 187 182 181 182 187 196 208 213 218 217 208 216 219 226 228 230
178 108 341 309 224 47 158 160 87 21 128 239 278 272 237 216 210 187 176 177 178 182 186 192 189 188 183 193 191 194 189 180 182 193 203 209 209 199 201 204 209 216 221 229
124 97 280 200 210 173 148 174 154 122 146 163 181 255 222 258 190 192 202 194 186 187 187 188 189 189 188 192 191 194 186 180 180 172 173 175 184 186 179 185 190 197 205 213
143 116 142 201 268 297 315 179 154 159 203 173 145 271 249 267 295 201 195 192 189 195 192 191 192 193 191 189 188 188 184 179 170 163 159 155 158 165 167 170 170 166 169 170
181 141 94 14 353 289 222 214 146 117 81 198 140 254 322 296 153 186 178 185 188 194 193 192 194 193 191 191 188 182 175 174 169 162 157 153 153 155 153 153 155 159 165 167
135 121 164 183 189 140 189 200 192 143 128 168 222 207 208 223 184 164 172 179 187 194 197 198 195 195 195 191 186 178 176 171 169 163 159 160 158 159 156 155 155 156 160 171
143 191 139 21 106 136 170 189 185 197 221 184 240 206 212 202 199 188 180 184 190 198 200 201 197 195 195 190 184 182 181 176 175 168 166 167 164 163 160 157 157 158 153 147
83 218 102 26 351 83 146 201 196 211 218 244 166 273 200 210 197 186 194 195 203 208 207 205 204 202 200 194 190 188 186 181 174 172 172 172 169 166 163 161 158 156 163 311
134 130 105 225 318 80 307 215 193 216 206 218 220 239 168 182 191 209 210 212 218 220 219 212 211 209 206 200 200 195 188 183 181 180 177 176 174 172 171 173 180 215 285 307
131 108 91 163 52 164 254 351 204 204 194 222 254 167 195 218 233 238 236 230 228 231 227 220 216 211 206 201 198 193 190 188 185 182 180 178 176 178 183 199 248 291 309 317
90 127 113 148 195 289 269 195 152 168 243 219 229 234 197 213 233 239 237 237 242 241 236 227 219 213 205 203 198 195 189 187 185 183 178 177 178 188 217 265 295 305 313 316
60 54 120 150 159 216 222 231 189 114 262 242 225 232 199 163 200 240 239 240 239 242 241 231 220 213 209 201 198 195 191 187 183 179 175 177 200 236 271 293 311 314 312 312
124 75 203 172 235 283 244 219 146 145 253 152 139 150 170 180 218 225 223 225 227 231 227 219 209 207 203 198 194 191 188 182 178 180 189 196 230 267 293 294 298 305 310 312
152 150 177 177 195 257 174 122 165 180 138 139 128 123 156 172 175 188 202 211 210 210 203 202 198 195 193 191 188 186 182 180 184 193 208 229 255 275 281 288 298 304 307 310
197 177 171 185 211 229 171 133 151 151 151 148 130 123 161 186 199 204 207 207 204 199 194 192 195 190 184 182 178 179 184 186 196 208 221 241 262 259 271 288 298 306 312 317
260 170 165 83 194 206 183 152 176 167 161 188 237 243 227 229 222 218 213 207 204 200 197 194 192 188 183 178 179 183 193 198 199 226 241 240 245 263 280 291 303 311 315 320
188 141 161 276 279 346 223 218 220 231 234 245 252 246 238 235 235 231 223 215 208 203 198 195 191 186 180 180 186 189 197 214 227 225 225 235 245 257 277 294 303 311 315 318
187 166 167 213 198 160 179 194 206 214 232 248 252 252 246 243 241 235 228 222 212 201 194 189 187 184 185 189 206 215 216 217 218 224 230 236 244 261 279 286 296 304 309 315